User: anonymous   Login
Location: Unspecified
(0.0000°N, 0.0000°E)
Time: 08:30:14
(UTC+00:00)
Language:

CERISE - Orbit

View from above orbital plane
View from above orbital plane
View from above satellite
View from above satellite

Ground track
Ground track

The orbit data is extracted from the following two-line orbital elements,

1 23606U 95033B   19346.13479864 -.00000121  00000-0 -51010-5 0  9990
2 23606  98.3462 350.0531 0004620 196.3196 163.7874 14.94994866322312
Epoch (UTC): 12 December 2019 03:14:06
Eccentricity: 0.0004620
inclination: 98.3462°
perigee height: 579 km
apogee height: 585 km
right ascension of ascending node: 350.0531°
argument of perigee: 196.3196°
revolutions per day: 14.94994866
mean anomaly at epoch: 163.7874°
orbit number at epoch: 32231

The dashed part of the orbit path shows where the satellite is in the earth's shadow,  

DLR